Weather in Kozani

Greece     40°17′57″N   21°47′34″E
temp.,
°C
wind,
m/s
gust,
m/s
humid.,
%
clouds,
%
prec.,
mm/h
press.,
hPa
HPBL,
m
6 may, thu
thu600:00+15wsw11637 0.0 101215
03:00+11w22781 0.0 101230
06:00+10wnw22810 0.0 101318
09:00+15wsw12660 0.0 1014316
12:00+19w1246100 0.0 10151313
15:00+22sw133725 0.0 10141741
18:00+22sw2242100 0.0 10131580
21:00+17sw1159100 0.0 101411
7 may, fri
fri700:00+14sw2269100 0.0 101511
03:00+14w1175100 0.0 101512
06:00+13w1172100 0.0 101412
09:00+15wnw1171100 0.0 101587
12:00+20sse2248100 0.0 1014911
15:00+23sw13338 0.0 10121450
18:00+23ssw3440100 0.0 10111238
21:00+18ssw225899 0.0 101118
8 may, sat
sat800:00+15w116098 0.0 101211
03:00+14wnw21632 0.0 101111
06:00+13nw116322 0.0 101111
09:00+17nne11565 0.0 1011240
12:00+22n33483 0.0 10111141
15:00+22nnw5450100 0.0 10121174
18:00+20nne346162 0.2 1013804
21:00+14n337514 0.2 101649
9 may, sun
sun900:00+12nnw22728 0.0 101931
03:00+12n226980 0.0 102049
06:00+12n227174 0.0 102158
09:00+12ene1178100 0.1 1023279
12:00+12se2386100 0.1 1024509
15:00+13se237692 0.3 1024771
18:00+14se227489 0.1 1023707
21:00+13se117782 0.1 102343
10 may, mon
mon1000:00+11ese118039 0.0 102436
03:00+8w00916 0.0 102412
06:00+7w01922 0.0 102312
09:00+12sse11791 0.0 1023392
12:00+17ese21610 0.0 1021893
15:00+20se22500 0.0 10191275
18:00+20se32500 0.0 10181264
21:00+14sw117781 0.0 101811